RH
26 30 38 49 54 59 55 48 43 44 50 38 40 49 46 50 59 62 65 90 100 74 83 62 42 43 46 50 45 33 22 16 13 13 16 18 19 18 17 15 15 14 14
26 28 28 35 42 51 56 49 44 51 45 41 34 36 47 55 67 72 91 97 98 79 75 49 46 49 51 44 36 28 22 17 14 15 18 19 19 18 18 16 16 15 15
23 30 33 30 32 40 60 54 50 49 47 41 33 33 49 68 73 60 97 98 92 70 66 46 51 52 47 43 43 39 31 20 15 17 20 21 20 21 18 17 17 17 17
20 22 27 37 33 36 61 56 52 51 44 37 33 33 49 66 64 93 86 96 58 48 45 50 54 50 53 54 53 49 36 22 15 17 20 22 22 20 20 18 19 19 18
16 18 21 27 35 43 59 57 54 48 45 38 40 39 56 67 75 92 75 97 52 44 49 54 54 55 54 54 55 55 49 26 14 16 20 22 19 17 18 20 20 19 15
18 18 21 28 34 51 59 55 53 51 44 39 43 42 56 57 96 59 69 52 45 48 52 54 56 56 56 56 55 57 56 27 14 17 21 20 18 18 19 20 18 14 8
18 19 27 32 37 49 57 55 56 55 46 40 38 37 42 90 99 56 49 44 47 51 54 57 59 60 61 60 58 58 58 24 17 20 20 17 17 18 17 16 12 8 7
22 18 29 34 42 50 53 56 57 58 50 42 37 36 48 98 78 76 45 46 50 53 57 61 64 66 65 64 62 62 54 22 20 20 17 17 18 17 15 12 9 7 7
20 23 33 37 52 62 59 58 56 59 57 45 38 36 74 85 86 42 46 50 52 55 62 67 71 71 68 68 66 65 37 23 22 18 18 18 18 16 13 11 10 10 8
18 23 47 43 49 65 64 59 58 61 59 48 40 40 46 56 44 47 51 53 54 59 66 72 75 75 72 71 68 54 27 23 19 18 19 19 17 14 13 13 13 15 15
28 27 53 47 42 56 64 62 62 62 62 51 42 42 43 44 46 50 53 55 59 64 70 75 79 79 73 72 68 34 26 20 19 20 20 17 14 14 14 15 18 18 18
35 28 60 60 50 51 62 64 67 64 63 53 45 44 45 44 49 54 56 60 65 68 73 79 82 78 75 73 43 28 23 20 21 20 17 15 14 15 17 19 20 19 19
62 35 48 44 55 52 59 65 68 64 63 55 48 46 47 46 52 57 61 65 68 71 77 82 82 78 77 53 31 24 21 22 21 18 16 14 14 16 19 21 20 18 15
57 31 39 44 60 60 64 67 70 65 64 59 52 50 50 51 57 61 64 68 71 75 80 82 81 80 60 34 25 22 23 22 19 17 15 16 18 20 22 20 17 13 7
77 58 61 62 65 69 71 75 70 69 67 62 56 54 53 56 59 63 68 71 75 78 81 82 83 63 36 26 23 23 22 18 16 16 18 19 22 23 20 17 10 7 14
80 68 63 64 65 72 75 70 71 70 68 58 59 60 59 60 63 68 72 75 78 80 84 85 58 37 26 24 24 22 18 16 16 17 20 22 22 20 16 7 8 20 23
77 70 70 70 74 77 76 74 71 68 63 61 64 63 64 67 69 72 76 78 81 85 81 49 35 25 25 25 22 18 16 16 18 21 22 21 19 14 6 6 15 19 23
71 69 71 75 77 78 77 79 78 73 66 66 68 68 69 70 73 78 82 84 85 69 42 32 26 26 25 21 17 16 16 19 22 23 22 19 10 5 6 14 19 20 30
72 75 78 82 84 85 84 84 81 73 71 71 70 69 73 82 85 84 87 77 49 38 27 26 26 25 20 18 17 16 20 22 22 21 18 7 5 7 16 22 21 24 46
75 78 81 85 86 78 75 73 74 74 73 75 81 85 87 86 87 79 55 44 32 26 28 26 24 19 18 16 16 22 23 21 18 14 5 5 8 16 23 23 26 47 68
60 65 77 85 87 86 82 82 89 93 90 88 88 87 86 78 58 46 36 25 26 26 26 23 21 19 15 19 24 24 22 19 11 4 5 8 16 23 24 28 53 73 70
62 63 68 72 75 77 83 87 90 89 88 88 83 76 59 48 38 25 24 26 26 25 21 21 19 18 23 25 23 21 18 7 5 5 7 15 22 24 29 52 75 77 78
67 67 69 72 75 80 83 89 91 88 82 74 62 51 39 25 22 25 26 26 23 21 19 15 16 22 24 23 20 16 5 5 5 6 14 23 23 28 44 80 81 81 83
74 75 74 75 78 80 83 83 79 72 63 51 38 24 21 25 26 26 24 22 21 17 15 17 21 24 22 19 14 5 5 5 6 9 20 24 27 38 81 84 86 92 92
76 78 78 76 76 77 75 71 62 48 36 23 21 25 25 26 24 22 21 19 16 16 17 22 25 21 20 14 5 6 5 6 9 16 24 24 30 72 82 85 98 97 95
74 73 69 71 72 68 56 43 29 19 22 25 24 24 24 21 21 20 17 16 17 20 28 29 25 23 16 6 6 5 6 8 14 23 23 27 57 81 81 91 91 95 93
Wind_Speed
44 48 48 47 43 40 35 33 29 27 29 30 33 32 31 30 27 25 23 22 17 23 21 16 15 17 18 20 23 25 25 25 25 24 24 24 25 25 26 27 29 30 32
41 43 48 48 45 40 36 34 27 29 29 27 28 27 27 28 27 24 20 22 21 19 21 16 15 17 19 22 24 26 27 27 27 27 27 27 27 26 27 29 30 32 33
42 43 43 47 46 40 33 31 28 29 28 26 26 26 26 27 27 24 21 20 24 18 18 15 15 17 20 23 25 27 29 29 29 29 30 32 33 34 31 30 31 32 33
39 40 44 44 44 42 32 31 30 28 26 23 23 23 24 25 25 21 21 25 20 17 14 14 16 19 21 24 27 29 30 31 31 31 31 33 36 38 41 38 38 39 38
31 35 38 43 41 39 33 31 27 26 23 21 21 20 23 24 22 23 21 25 16 14 13 14 17 20 23 26 29 31 33 34 33 33 34 35 37 39 42 45 41 39 38
23 26 30 38 42 41 35 32 27 22 21 21 20 20 21 25 24 21 20 18 15 13 13 16 18 22 25 29 31 34 35 36 36 36 37 39 40 41 44 48 48 49 45
25 26 27 37 42 43 37 33 26 21 20 20 21 22 23 20 23 21 18 17 15 14 15 17 20 24 27 31 34 36 38 38 38 39 39 40 41 42 43 46 48 52 53
18 27 28 35 40 42 38 35 27 22 20 20 21 22 21 25 23 20 21 17 15 15 17 19 23 26 30 33 36 38 40 40 40 41 41 41 42 43 44 47 51 55 57
20 21 28 35 38 39 38 34 29 24 20 20 22 22 24 25 27 23 19 18 17 18 19 22 25 29 33 36 38 40 41 42 42 42 42 42 43 44 46 49 51 55 63
24 25 28 33 38 37 36 34 31 25 22 21 23 23 24 26 23 22 21 19 19 20 22 25 29 32 36 39 41 42 43 43 42 42 42 43 45 46 48 50 52 54 57
21 26 27 30 37 39 37 34 30 28 24 22 24 24 25 24 24 23 21 21 21 23 25 28 32 35 38 41 43 43 44 43 42 43 44 44 47 47 49 51 53 55 58
20 29 29 24 35 39 39 35 30 27 26 24 25 25 25 25 25 23 22 23 24 26 28 31 35 38 41 43 44 44 44 43 42 43 44 46 48 49 50 52 54 57 59
22 28 30 27 28 39 40 35 30 27 27 25 25 26 26 26 25 24 24 25 26 28 31 34 37 40 42 44 45 44 43 43 44 45 46 48 50 51 52 54 57 59 60
18 26 28 33 33 40 38 33 30 27 27 25 25 27 26 26 25 25 26 27 28 31 33 36 38 41 43 44 44 43 43 43 44 45 48 49 51 52 54 57 59 61 58
14 27 30 30 34 37 34 30 28 26 26 24 27 26 26 26 26 27 27 28 30 33 35 37 40 42 42 43 42 43 43 44 46 46 48 50 51 53 56 58 57 54 51
15 23 29 33 33 32 29 27 25 25 24 26 26 25 25 25 26 26 27 30 32 34 35 38 40 41 41 40 41 43 45 46 47 49 50 51 52 54 56 54 49 46 44
21 24 25 27 27 24 22 22 23 23 23 24 23 23 25 25 25 27 29 31 32 33 36 38 39 39 39 40 42 44 46 47 48 50 51 53 55 55 52 46 44 42 38
29 29 29 27 24 22 20 20 20 21 22 22 22 22 23 25 26 28 29 30 31 34 36 37 37 37 40 41 43 45 46 48 49 50 51 54 54 49 45 44 43 39 36
25 25 24 22 20 19 19 19 20 21 20 19 20 22 23 24 25 26 27 29 32 34 34 35 36 37 40 42 44 46 48 49 51 51 52 52 48 44 42 41 41 38 33
23 21 20 18 17 16 17 17 17 16 17 18 19 20 21 21 22 25 27 29 30 31 32 34 37 39 41 43 45 47 50 51 54 54 50 44 42 40 38 38 39 37 32
20 19 17 14 14 14 14 14 15 15 15 16 17 17 18 20 23 25 27 28 29 30 32 34 37 40 43 44 46 47 50 53 54 50 44 41 40 37 36 35 34 33 29
14 14 13 12 11 10 10 10 12 12 13 13 14 16 19 21 23 24 26 27 28 30 33 35 37 39 41 44 47 49 52 51 48 44 41 39 37 36 34 32 29 27 28
11 11 10 9 9 10 11 10 11 11 11 13 16 17 19 20 22 24 24 26 29 32 35 37 38 39 41 45 48 50 48 45 43 42 38 36 35 33 30 28 26 27 28
13 10 7 6 6 7 9 9 9 11 13 14 16 17 19 20 21 22 24 28 31 34 37 39 40 42 45 48 49 47 45 43 41 40 37 36 33 32 28 24 25 26 28
9 7 6 6 7 8 8 9 10 12 13 14 15 17 17 18 20 23 26 29 33 36 38 40 43 47 48 49 47 46 44 43 41 39 37 34 30 26 22 22 23 25 28
6 6 7 8 8 8 9 10 10 11 12 14 14 15 16 19 21 25 28 32 34 37 39 41 45 46 47 46 44 43 41 40 39 36 35 31 28 24 23 24 24 26 27
Wind_Direction
234 233 234 238 239 244 252 256 253 240 247 251 250 249 251 258 259 261 265 269 260 275 280 281 286 292 302 311 315 313 311 311 310 308 308 309 310 310 311 309 305 303 300
238 236 235 237 238 241 249 256 241 235 242 249 252 245 245 248 252 254 244 261 246 260 273 276 283 294 307 312 312 312 313 311 308 306 304 304 306 307 308 308 305 302 299
243 234 233 236 238 238 241 249 231 236 242 250 250 237 230 234 244 254 246 248 260 259 264 271 285 300 308 311 313 315 315 312 309 308 309 309 309 306 305 306 304 298 295
251 242 232 233 234 232 234 239 226 236 241 247 245 233 229 236 246 248 247 242 250 250 257 275 290 302 308 312 316 316 316 315 313 312 312 312 311 310 309 309 309 304 302
256 247 235 230 232 226 226 225 222 230 238 239 236 223 222 229 235 233 238 243 248 247 262 279 293 304 310 315 316 318 319 318 315 313 314 314 313 312 310 308 305 301 300
249 247 234 221 223 220 220 217 219 224 231 231 231 224 221 228 222 240 229 238 237 250 267 282 295 304 311 315 317 318 319 319 316 315 315 314 313 313 311 309 309 308 306
252 238 225 217 216 216 216 214 219 222 229 228 230 227 221 215 224 235 232 233 240 254 270 284 296 305 311 314 317 318 319 318 317 316 315 314 312 311 310 310 309 309 310
259 239 224 212 213 215 214 212 215 220 227 227 227 222 207 215 225 228 230 234 246 261 275 288 298 305 310 314 317 317 317 317 316 315 315 313 312 312 312 311 310 310 310
240 228 222 211 208 209 210 211 213 217 226 227 222 222 207 215 225 228 229 238 252 266 279 290 299 305 310 314 315 315 316 315 315 315 314 313 312 312 311 311 312 311 311
225 213 214 211 204 203 206 207 213 220 224 226 219 216 214 221 223 222 230 243 258 270 282 292 299 306 310 312 313 314 314 315 315 314 314 313 312 312 312 311 310 310 309
219 207 210 210 203 203 205 207 216 221 222 222 221 219 220 221 221 226 237 251 263 275 285 294 301 306 309 310 313 313 313 314 314 314 314 313 312 312 311 311 311 311 311
227 208 191 190 201 201 205 207 213 217 220 221 221 221 222 223 225 233 245 257 269 279 289 296 302 305 307 310 311 311 313 314 314 313 312 312 312 313 313 313 312 312 312
219 201 196 202 203 200 200 206 214 216 218 218 224 223 224 226 230 240 252 263 274 284 291 297 301 304 307 309 310 312 314 314 314 314 314 314 314 315 315 314 314 314 313
183 180 201 195 192 193 196 205 211 215 217 216 223 222 225 230 237 247 258 269 280 287 293 297 301 304 306 308 311 312 313 314 314 315 314 315 316 317 316 316 316 316 316
175 179 180 182 188 191 194 198 207 213 215 216 222 223 229 235 244 254 265 277 284 289 294 297 300 302 306 309 311 312 312 314 315 314 316 317 318 318 318 318 315 315 316
162 179 190 192 187 185 188 196 203 211 214 218 221 227 235 243 252 263 274 281 286 291 293 297 300 304 308 310 311 312 315 315 315 318 319 319 318 318 318 316 315 314 315
147 148 153 160 165 172 183 193 203 210 215 218 224 232 241 252 263 271 278 283 287 290 294 297 302 307 310 312 313 315 315 316 318 319 321 320 320 319 316 314 312 313 317
135 137 140 144 154 167 182 194 204 210 213 218 228 240 251 261 269 276 280 284 289 292 296 302 307 310 312 313 315 315 316 318 319 321 321 320 318 318 317 315 314 317 318
128 132 137 146 161 176 188 195 200 204 211 224 237 249 259 267 273 277 282 287 290 296 303 307 310 311 314 314 315 317 318 321 321 322 322 320 319 319 318 316 316 319 320
133 138 144 154 168 179 185 192 198 208 220 233 245 256 264 269 274 281 285 290 297 304 307 309 311 314 314 316 317 320 322 321 321 323 323 321 318 317 317 319 320 321 322
141 144 151 151 162 176 188 193 201 215 230 243 252 258 265 274 280 285 292 300 305 306 308 312 313 315 317 320 321 321 321 322 323 324 324 320 320 321 322 322 321 321 323
146 145 152 159 166 176 187 201 216 228 238 245 255 266 274 281 288 297 302 304 305 309 311 313 315 317 318 319 320 323 324 324 323 323 324 323 324 324 323 322 321 321 323
151 152 157 172 179 188 198 211 225 233 245 259 269 278 286 294 299 302 303 307 309 311 313 315 317 318 319 321 323 324 325 323 323 324 326 325 326 325 325 324 324 325 325
169 162 162 180 200 214 217 220 233 249 262 273 282 289 295 299 301 305 308 309 311 313 316 317 318 322 324 324 324 326 325 324 326 327 329 330 329 329 330 328 324 322 323
162 166 181 202 203 206 219 237 253 264 273 283 291 296 300 304 307 308 310 312 314 316 317 320 325 325 326 326 326 327 328 329 329 329 328 327 329 331 329 326 325 326 327
159 172 187 191 203 222 237 248 263 278 287 293 299 303 305 307 308 311 314 316 318 319 322 324 325 325 325 325 326 327 328 327 327 327 327 329 332 331 330 330 333 331 330